Total_Precipitation_Accumulation
0.01 0.00 0.00 0.00 0.01 0.01 0.02 0.01 0.01 0.00 0.00 0.00 0.00 0.00 0.00 0.00 0.00 0.00 0.00 0.01 0.00 0.00 0.00 0.01 0.02 0.05 0.09 0.08 0.03 0.00 0.00 0.01 0.02 0.03 0.03 0.02 0.03 0.03 0.05 0.08 0.14 0.31 0.45 0.41
0.01 0.00 0.00 0.00 0.00 0.01 0.02 0.01 0.00 0.00 0.00 0.00 0.00 0.00 0.00 0.00 0.00 0.00 0.00 0.00 0.00 0.00 0.00 0.00 0.00 0.01 0.01 0.02 0.02 0.02 0.01 0.04 0.09 0.12 0.13 0.15 0.13 0.09 0.07 0.08 0.13 0.21 0.27 0.27
0.00 0.00 0.00 0.00 0.00 0.00 0.00 0.00 0.00 0.00 0.00 0.00 0.00 0.00 0.00 0.00 0.00 0.00 0.00 0.00 0.00 0.00 0.00 0.00 0.00 0.00 0.00 0.01 0.03 0.07 0.13 0.21 0.32 0.42 0.44 0.36 0.27 0.22 0.17 0.14 0.17 0.24 0.29 0.24
0.00 0.00 0.00 0.00 0.00 0.00 0.00 0.00 0.00 0.01 0.01 0.00 0.00 0.00 0.00 0.00 0.00 0.00 0.00 0.00 0.00 0.00 0.00 0.01 0.02 0.02 0.04 0.08 0.14 0.24 0.35 0.48 0.58 0.66 0.59 0.44 0.37 0.30 0.26 0.24 0.25 0.23 0.23 0.20
0.00 0.00 0.00 0.00 0.00 0.00 0.00 0.00 0.00 0.00 0.01 0.01 0.00 0.00 0.00 0.00 0.00 0.00 0.00 0.00 0.00 0.00 0.02 0.06 0.09 0.10 0.13 0.23 0.35 0.45 0.64 0.76 0.83 0.77 0.62 0.53 0.40 0.32 0.26 0.25 0.28 0.29 0.23 0.18
0.00 0.00 0.00 0.00 0.00 0.00 0.00 0.00 0.00 0.00 0.01 0.01 0.00 0.01 0.01 0.00 0.00 0.00 0.00 0.00 0.00 0.00 0.03 0.12 0.20 0.22 0.26 0.47 0.69 0.80 0.86 0.90 0.83 0.71 0.59 0.52 0.48 0.41 0.32 0.30 0.32 0.26 0.16 0.12
0.00 0.00 0.00 0.00 0.00 0.00 0.00 0.00 0.01 0.01 0.01 0.01 0.01 0.02 0.02 0.00 0.00 0.00 0.00 0.00 0.01 0.02 0.03 0.09 0.21 0.31 0.49 0.74 0.97 1.05 0.99 0.87 0.70 0.62 0.57 0.54 0.51 0.46 0.37 0.29 0.24 0.18 0.12 0.11
0.00 0.00 0.00 0.00 0.00 0.00 0.00 0.00 0.03 0.03 0.02 0.03 0.05 0.06 0.03 0.01 0.00 0.00 0.00 0.01 0.02 0.07 0.09 0.10 0.17 0.32 0.56 0.84 1.09 1.30 1.20 0.97 0.75 0.64 0.60 0.57 0.53 0.45 0.34 0.26 0.21 0.19 0.16 0.15
0.00 0.00 0.00 0.00 0.00 0.00 0.00 0.01 0.03 0.08 0.05 0.05 0.06 0.08 0.07 0.03 0.01 0.01 0.01 0.02 0.04 0.06 0.12 0.19 0.30 0.36 0.52 0.76 1.08 1.25 1.22 1.05 0.88 0.78 0.73 0.70 0.58 0.45 0.32 0.22 0.18 0.16 0.12 0.08
0.00 0.00 0.00 0.00 0.00 0.00 0.01 0.02 0.05 0.11 0.11 0.08 0.08 0.09 0.06 0.02 0.01 0.01 0.01 0.01 0.02 0.03 0.04 0.14 0.36 0.53 0.73 0.68 0.79 0.92 0.90 0.86 0.84 0.83 0.87 0.82 0.62 0.46 0.35 0.26 0.20 0.13 0.09 0.05
0.00 0.00 0.00 0.00 0.00 0.01 0.03 0.04 0.06 0.10 0.14 0.14 0.16 0.15 0.08 0.04 0.03 0.02 0.02 0.02 0.01 0.02 0.03 0.06 0.18 0.30 0.47 0.57 0.58 0.58 0.61 0.66 0.71 0.69 0.69 0.60 0.42 0.31 0.26 0.22 0.17 0.10 0.06 0.04
0.00 0.00 0.00 0.00 0.01 0.04 0.10 0.11 0.10 0.16 0.21 0.24 0.32 0.31 0.15 0.11 0.10 0.09 0.08 0.07 0.04 0.04 0.04 0.04 0.08 0.16 0.23 0.32 0.38 0.41 0.44 0.51 0.54 0.50 0.47 0.37 0.26 0.22 0.23 0.21 0.14 0.08 0.07 0.07
0.00 0.00 0.00 0.00 0.01 0.08 0.25 0.31 0.21 0.16 0.24 0.35 0.39 0.33 0.24 0.21 0.21 0.22 0.23 0.16 0.10 0.09 0.07 0.06 0.07 0.12 0.13 0.15 0.18 0.25 0.34 0.47 0.51 0.39 0.31 0.27 0.23 0.23 0.23 0.18 0.12 0.08 0.09 0.11
0.00 0.00 0.00 0.01 0.03 0.12 0.30 0.38 0.30 0.25 0.37 0.38 0.33 0.30 0.29 0.31 0.34 0.33 0.31 0.25 0.18 0.13 0.11 0.10 0.10 0.13 0.14 0.15 0.16 0.18 0.28 0.50 0.64 0.60 0.40 0.27 0.25 0.23 0.20 0.13 0.09 0.10 0.12 0.14
0.00 0.00 0.00 0.01 0.01 0.05 0.14 0.22 0.22 0.25 0.30 0.30 0.28 0.31 0.38 0.42 0.44 0.42 0.34 0.23 0.16 0.12 0.10 0.09 0.08 0.11 0.14 0.20 0.25 0.31 0.42 0.59 0.60 0.45 0.26 0.18 0.16 0.15 0.10 0.05 0.03 0.04 0.07 0.09
0.00 0.00 0.00 0.00 0.00 0.00 0.01 0.03 0.05 0.07 0.11 0.15 0.21 0.33 0.39 0.40 0.35 0.31 0.23 0.13 0.08 0.06 0.05 0.05 0.04 0.05 0.08 0.11 0.16 0.25 0.32 0.36 0.31 0.23 0.16 0.12 0.08 0.05 0.03 0.02 0.01 0.00 0.01 0.03
0.00 0.00 0.00 0.00 0.00 0.00 0.00 0.01 0.04 0.09 0.12 0.17 0.28 0.37 0.32 0.28 0.24 0.22 0.14 0.05 0.02 0.02 0.02 0.02 0.02 0.04 0.03 0.03 0.03 0.04 0.07 0.09 0.08 0.06 0.05 0.04 0.04 0.03 0.03 0.03 0.02 0.02 0.02 0.03
0.00 0.00 0.00 0.00 0.00 0.00 0.00 0.00 0.02 0.06 0.11 0.18 0.25 0.26 0.20 0.16 0.11 0.09 0.05 0.01 0.00 0.00 0.00 0.00 0.00 0.01 0.01 0.01 0.01 0.01 0.00 0.01 0.01 0.01 0.01 0.01 0.01 0.02 0.03 0.04 0.03 0.02 0.01 0.02
0.00 0.00 0.00 0.00 0.00 0.00 0.00 0.00 0.00 0.02 0.03 0.05 0.06 0.06 0.05 0.03 0.02 0.01 0.00 0.00 0.00 0.00 0.00 0.00 0.00 0.00 0.00 0.00 0.00 0.00 0.00 0.00 0.00 0.00 0.00 0.00 0.00 0.00 0.01 0.01 0.01 0.00 0.00 0.01
0.00 0.00 0.00 0.00 0.00 0.00 0.00 0.00 0.00 0.00 0.01 0.01 0.01 0.01 0.01 0.00 0.01 0.00 0.00 0.00 0.00 0.00 0.00 0.00 0.00 0.00 0.00 0.00 0.00 0.00 0.00 0.00 0.00 0.00 0.00 0.00 0.00 0.00 0.00 0.00 0.00 0.00 0.00 0.00
0.00 0.00 0.00 0.00 0.00 0.00 0.00 0.00 0.00 0.00 0.00 0.00 0.00 0.00 0.00 0.00 0.00 0.00 0.00 0.00 0.00 0.00 0.00 0.00 0.00 0.00 0.00 0.00 0.00 0.00 0.00 0.00 0.00 0.00 0.00 0.00 0.00 0.00 0.00 0.00 0.00 0.00 0.00 0.00
0.00 0.00 0.00 0.00 0.00 0.00 0.00 0.00 0.00 0.00 0.00 0.00 0.00 0.00 0.00 0.00 0.00 0.00 0.00 0.00 0.00 0.00 0.00 0.00 0.00 0.00 0.00 0.00 0.00 0.00 0.00 0.00 0.00 0.00 0.00 0.00 0.00 0.00 0.00 0.00 0.00 0.00 0.00 0.00
0.00 0.00 0.00 0.00 0.00 0.00 0.00 0.00 0.00 0.00 0.00 0.00 0.00 0.00 0.00 0.00 0.00 0.00 0.00 0.00 0.00 0.00 0.00 0.00 0.00 0.00 0.00 0.00 0.00 0.00 0.00 0.00 0.00 0.00 0.00 0.00 0.00 0.00 0.00 0.00 0.00 0.00 0.00 0.00
0.00 0.00 0.00 0.00 0.00 0.00 0.00 0.00 0.00 0.00 0.00 0.00 0.00 0.00 0.00 0.00 0.00 0.00 0.00 0.00 0.00 0.00 0.00 0.00 0.00 0.00 0.00 0.00 0.00 0.00 0.00 0.00 0.00 0.00 0.00 0.00 0.00 0.00 0.00 0.00 0.00 0.00 0.00 0.00
0.00 0.00 0.00 0.00 0.00 0.00 0.00 0.00 0.00 0.00 0.00 0.00 0.00 0.00 0.00 0.00 0.00 0.00 0.00 0.00 0.00 0.00 0.00 0.00 0.00 0.00 0.00 0.00 0.00 0.00 0.00 0.00 0.00 0.00 0.00 0.00 0.00 0.00 0.00 0.00 0.00 0.00 0.00 0.00
0.00 0.00 0.00 0.00 0.00 0.00 0.00 0.00 0.00 0.00 0.00 0.00 0.00 0.00 0.00 0.00 0.00 0.00 0.00 0.00 0.00 0.00 0.00 0.00 0.00 0.00 0.00 0.00 0.00 0.00 0.00 0.00 0.00 0.00 0.00 0.00 0.00 0.00 0.00 0.00 0.00 0.00 0.00 0.01